Lid_Strength_Index
3 3 3 5 9 9 11 8 6 6 6 5 5 5 5 5 6 9 1 0 0 0 -0 -0 -0 -1 -1 -1 -1 -1 -1 -1 -1 -1 -1 -1 -1 -1 -1 -1 -1 -1 -1 -1 -1 -1 -2 -2 -2
4 4 5 7 10 11 10 7 7 6 5 5 5 5 5 6 3 3 2 0 0 0 -0 -1 -1 -0 -1 -1 -1 -1 -1 -1 -1 -1 -1 -1 -1 -1 -1 -1 -1 -1 -1 -1 -2 -2 -2 -2 -2
4 3 7 10 11 12 10 7 7 5 5 5 5 4 4 5 3 2 1 0 0 0 -0 -1 -1 -0 -0 -1 -1 -1 -1 -1 -1 -1 -1 -1 -1 -1 -1 -1 -1 -2 -1 -2 -2 -2 -2 -2 -1
3 4 6 10 12 10 9 6 6 6 5 5 5 5 3 2 2 1 0 0 0 0 -0 -1 -1 -0 -0 -1 -1 -1 -1 -1 -1 -1 -1 -1 -1 -1 -1 -1 -2 -2 -2 -2 -2 -2 -2 -1 -1
2 3 8 10 10 9 8 6 5 6 5 5 5 6 4 2 1 1 1 0 1 0 0 -0 -1 -0 -1 -1 -1 -1 -1 -1 -1 -1 -1 -1 -1 -1 -1 -1 -2 -2 -2 -2 -2 -2 -2 -2 -2
5 4 9 10 8 8 6 6 5 6 6 5 5 5 4 2 2 1 0 0 0 0 -0 -0 -1 -1 -0 -0 -1 -1 -0 -1 -1 -1 -1 -1 -1 -1 -1 -2 -2 -2 -2 -2 -2 -2 -2 -2 -2
5 7 9 8 8 7 6 5 7 6 7 5 4 5 3 3 2 1 0 0 0 0 0 -0 -0 -1 -1 -1 -0 -1 -1 -1 -1 -1 -1 -1 -1 -1 -1 -2 -2 -2 -2 -2 -2 -2 -2 -2 -2
4 6 8 8 8 8 5 5 5 5 5 3 3 6 5 2 1 1 0 1 0 0 0 0 -0 -0 -0 -0 -1 -1 -1 -1 -1 -1 -1 -1 -1 -1 -1 -1 -2 -2 -2 -2 -2 -2 -2 -2 -2
3 7 9 8 8 7 5 5 4 3 5 4 3 4 3 1 2 2 1 1 1 1 1 0 0 -0 -0 -0 -1 -1 -1 -1 -1 -1 -1 -1 -1 -1 -1 -2 -3 -2 -2 -2 -2 -2 -2 -2 -2
6 8 8 6 5 6 5 5 5 5 5 5 4 3 2 3 3 2 2 2 2 1 1 0 0 0 -0 -0 -0 -1 -1 -1 -1 -1 -1 -1 -1 -1 -1 -2 -3 -2 -2 -2 -2 -2 -2 -1 -0
5 7 6 5 4 4 5 5 4 5 6 5 5 4 3 3 3 3 3 2 2 1 1 0 0 -0 -0 -0 -0 -0 -0 -0 -1 -1 -1 -1 -1 -1 -1 -1 -1 -1 -1 -1 -1 -1 -0 -0 -0
7 5 5 5 4 5 5 4 5 5 5 3 3 3 3 3 3 4 4 3 1 1 1 0 0 0 0 -0 0 -0 -0 -0 -0 -0 -1 -0 -0 -0 -0 -0 -0 -0 -0 -0 -1 -0 -0 -0 -1
7 6 5 4 4 4 4 5 5 5 3 3 3 3 3 3 3 1 2 3 1 0 1 0 0 0 0 -0 -0 -0 0 -0 -0 -0 -1 -1 -0 0 -0 -0 -0 -0 -0 -0 0 -0 0 0 -0
6 6 6 5 5 5 5 5 5 4 3 3 3 3 3 3 3 2 3 1 2 1 1 1 0 0 -0 -1 -1 -0 -0 -0 -0 -0 -0 -1 -0 -0 -0 0 0 -0 -0 -0 -0 0 0 0 0
5 7 6 6 6 6 5 7 7 4 3 4 4 3 3 3 2 3 2 2 1 1 1 1 0 0 0 0 -0 -0 -0 -1 -0 -0 -1 -0 -1 -0 -0 0 0 -0 -1 -0 -0 -0 0 0 0
7 7 9 7 6 6 6 9 6 4 4 4 4 4 3 3 2 2 2 2 1 -0 -0 -1 0 0 0 0 0 -0 -0 -0 -0 -0 -1 -0 -0 -1 -0 0 0 -0 -0 0 0 0 1 1 1
8 10 9 8 5 6 6 9 6 4 4 5 4 4 3 3 2 2 1 2 2 1 0 -0 -1 -0 0 0 0 0 -0 0 -0 -0 -0 -0 -0 -0 0 0 0 -0 0 0 0 1 1 1 1
10 10 9 9 7 6 7 8 6 5 5 5 4 4 4 3 3 2 2 1 1 1 0 0 1 0 -0 0 1 0 0 0 -0 0 -0 -0 -0 -0 0 0 0 0 0 1 1 1 1 1 1
8 8 9 8 7 7 8 7 7 5 5 5 5 4 4 4 2 2 2 1 1 1 1 0 1 1 1 1 2 2 2 1 1 0 -0 -0 -0 -0 0 0 0 0 1 1 1 1 2 2 1
8 9 9 8 6 7 7 8 6 6 5 5 5 4 4 4 3 2 2 1 2 1 1 1 1 0 1 1 1 1 1 1 0 0 0 -0 -0 -0 0 0 1 0 1 1 1 1 2 2 1
8 10 9 9 7 7 8 9 8 6 5 5 4 4 4 4 3 3 2 2 1 2 2 0 0 1 -0 0 0 1 1 1 1 1 1 0 0 0 0 0 0 1 1 1 1 1 2 3 2
10 7 7 8 9 12 8 13 9 7 7 6 5 4 4 4 3 3 3 2 1 1 0 1 0 0 1 0 0 1 2 3 2 1 1 1 0 0 0 0 0 0 0 1 1 1 1 2 3
8 7 8 8 9 10 10 12 10 7 8 7 6 5 4 3 3 3 2 2 1 0 0 0 -0 1 1 1 1 1 2 2 1 1 1 1 1 0 0 0 0 1 1 1 1 1 1 1 2
6 7 8 8 9 13 11 11 11 9 8 7 5 5 4 4 3 3 2 2 2 1 1 0 0 1 0 1 1 2 2 2 2 2 2 2 1 1 1 0 0 0 1 1 1 1 1 1 1
7 9 13 14 14 15 10 11 11 8 7 7 6 5 4 3 3 3 3 3 2 2 1 1 1 1 1 1 1 1 1 2 1 2 2 2 2 1 1 1 1 1 1 1 1 1 1 1 1
9 9 14 19 18 15 11 14 11 6 6 5 5 4 4 4 3 3 3 2 2 1 2 1 1 1 1 1 1 1 1 1 1 1 1 1 1 1 0 1 1 1 1 1 1 1 1 1 1
9 11 8 13 13 16 13 10 7 6 6 6 5 5 4 4 3 3 2 2 2 2 1 1 1 1 1 1 1 1 1 1 1 1 1 1 1 1 1 0 1 1 1 1 1 1 1 1 1
8 7 13 12 19 20 14 13 12 9 8 7 6 5 4 4 3 3 3 2 2 1 1 1 1 1 1 1 1 1 1 1 1 1 1 1 1 1 1 1 1 1 1 1 1 1 1 1 1
9 12 12 12 12 17 18 14 8 8 8 7 6 5 4 4 4 3 3 2 2 1 1 1 1 1 1 1 1 1 1 1 1 1 1 1 1 1 1 1 1 1 1 1 1 1 1 2 2
7 10 11 16 18 15 15 15 7 7 7 7 7 5 4 4 3 3 3 2 2 2 2 1 1 1 0 1 1 1 1 0 1 1 1 1 1 1 1 1 1 1 1 1 1 2 1 2 2